Sarasota, FL

1:23 AM EDT on April 27, 2017 (GMT -0400)
Sarasota-bradenton

Weather History for KSRQ - October, 2013

Change the Weather History Date:

Saturday, October 5, 2013

  Actual Average Record
Temperature  
Mean Temperature 81 °F 79 °F  
Max Temperature 89 °F 87 °F 93 °F (1959)
Min Temperature 73 °F 71 °F 56 °F (1929)
Degree Days  
Heating Degree Days 0 0  
Month to date heating degree days 0 0  
Since 1 July heating degree days 0 0  
Cooling Degree Days 16 14  
Month to date cooling degree days 84 72  
Year to date cooling degree days 3091 2861  
Growing Degree Days 30 (Base 50)    
Moisture  
Dew Point 71 °F    
Average Humidity 75    
Maximum Humidity 87    
Minimum Humidity 55    
Precipitation  
Precipitation 0.00 in 0.12 in 2.86 in (1995)
Month to date precipitation 0.00 0.66  
Year to date precipitation 50.56 46.09  
Sea Level Pressure  
Sea Level Pressure 29.99 in    
Wind  
Wind Speed 7 mph (ENE)    
Max Wind Speed 14 mph    
Max Gust Speed 20 mph    
Visibility 10 miles    
Events      
T = Trace of Precipitation, MM = Missing Value Source: NWS Daily Summary

Daily Weather History Graph

Daily Weather History Graph

Search for Another Location

Airport or City:

Trip Planner

Search our weather history database for the weather conditions in past years. The results will help you decide how hot, cold, wet, or windy it might be!

Date:

Astronomy

Oct. 05, 2013 Rise Set
Actual Time 7:24 AM EDT 7:11 PM EDT
Civil Twilight 7:01 AM EDT 7:34 PM EDT
Nautical Twilight 6:34 AM EDT 8:01 PM EDT
Astronomical Twilight 6:07 AM EDT 8:29 PM EDT
Moon 7:56 AM EDT (10/5) 7:38 PM EDT (10/5)
Length of Visible Light 12h 33m
Length of Day
11h 46m
New Moon, 0% of the Moon is Illuminated
Oct 5
New Moon
Oct 11
First Quarter
Oct 18
Full
Oct 26
Last Quarter
Nov 3
New

Hourly Weather History & Observations

Time (EDT) Temp. Heat Index Dew Point Humidity Pressure Visibility Wind Dir Wind Speed Gust Speed Precip Events Conditions
12:53 AM 78.1 °F - 70.0 °F 76% 30.05 in 10.0 mi East 6.9 mph - N/A   Partly Cloudy
1:53 AM 77.0 °F - 70.0 °F 79% 30.04 in 10.0 mi ESE 5.8 mph - N/A   Clear
2:53 AM 75.9 °F - 70.0 °F 82% 30.03 in 10.0 mi East 5.8 mph - N/A   Clear
3:53 AM 75.0 °F - 70.0 °F 84% 30.01 in 10.0 mi East 5.8 mph - N/A   Mostly Cloudy
4:53 AM 75.0 °F - 70.0 °F 84% 29.99 in 10.0 mi ENE 6.9 mph - N/A   Clear
5:53 AM 73.9 °F - 70.0 °F 87% 30.00 in 10.0 mi East 6.9 mph - N/A   Clear
6:53 AM 73.0 °F - 70.0 °F 90% 30.00 in 10.0 mi East 5.8 mph - N/A   Clear
7:53 AM 73.0 °F - 70.0 °F 90% 30.01 in 10.0 mi ENE 4.6 mph - N/A   Clear
8:53 AM 75.9 °F - 71.1 °F 85% 30.03 in 10.0 mi East 4.6 mph - N/A   Clear
9:53 AM 81.0 °F 84.4 °F 70.0 °F 69% 30.04 in 10.0 mi East 6.9 mph - N/A   Clear
10:53 AM 82.9 °F 87.0 °F 70.0 °F 65% 30.04 in 10.0 mi East 10.4 mph - N/A   Clear
11:53 AM 86.0 °F 90.1 °F 69.1 °F 57% 30.03 in 10.0 mi East 9.2 mph - N/A   Clear
12:53 PM 88.0 °F 92.9 °F 70.0 °F 55% 30.01 in 10.0 mi ENE 5.8 mph - N/A   Mostly Cloudy
1:53 PM 87.1 °F 92.0 °F 70.0 °F 57% 29.99 in 10.0 mi ENE 4.6 mph - N/A   Scattered Clouds
2:53 PM 84.0 °F 89.6 °F 72.0 °F 67% 29.97 in 10.0 mi WNW 10.4 mph - N/A   Overcast
3:53 PM 86.0 °F 93.0 °F 73.0 °F 65% 29.96 in 10.0 mi West 11.5 mph - N/A   Partly Cloudy
4:53 PM 84.0 °F 90.2 °F 73.0 °F 69% 29.94 in 10.0 mi West 10.4 mph - N/A   Scattered Clouds
5:53 PM 82.9 °F 88.8 °F 73.0 °F 72% 29.94 in 10.0 mi West 10.4 mph - N/A   Clear
6:53 PM 82.0 °F 86.7 °F 72.0 °F 71% 29.94 in 10.0 mi NNW 9.2 mph - N/A   Clear
7:53 PM 80.1 °F 84.2 °F 73.0 °F 79% 29.94 in 10.0 mi NNW 8.1 mph - N/A   Clear
8:53 PM 80.1 °F 84.2 °F 73.0 °F 79% 29.96 in 10.0 mi Calm Calm - N/A   Partly Cloudy
9:53 PM 80.1 °F 84.5 °F 73.9 °F 81% 29.98 in 10.0 mi Calm Calm - N/A   Scattered Clouds
10:53 PM 80.1 °F 83.6 °F 71.1 °F 74% 29.98 in 10.0 mi East 11.5 mph - N/A   Partly Cloudy
11:53 PM 78.1 °F - 71.1 °F 79% 29.99 in 10.0 mi East 9.2 mph - N/A   Clear